Time,TemperatureF,DewpointF,PressureIn,WindDirection,WindDirectionDegrees,WindSpeedMPH,WindSpeedGustMPH,Humidity,HourlyPrecipIn,Conditions,Clouds,dailyrainin,SoftwareType,DateUTC
2013-05-05 00:02:00,54.7,44.8,30.13,SW,225,6.0,8.0,69,0.00,,,0.00,meteohub,2013-05-05 04:02:00,
2013-05-05 00:07:00,54.7,44.8,30.13,West,270,3.0,8.0,69,0.00,,,0.00,meteohub,2013-05-05 04:07:00,
2013-05-05 00:12:00,54.5,44.6,30.10,SSW,202,2.0,6.0,69,0.00,,,0.00,meteohub,2013-05-05 04:12:00,
2013-05-05 00:17:00,54.5,44.6,30.10,NNE,22,5.0,6.0,69,0.00,,,0.00,meteohub,2013-05-05 04:17:00,
2013-05-05 00:22:00,54.3,44.4,30.10,WSW,248,3.0,5.0,69,0.00,,,0.00,meteohub,2013-05-05 04:22:00,
2013-05-05 00:27:00,54.1,44.2,30.10,SSW,202,3.0,10.0,69,0.00,,,0.00,meteohub,2013-05-05 04:27:00,
2013-05-05 00:32:00,54.1,44.2,30.10,NNW,338,4.0,10.0,69,0.00,,,0.00,meteohub,2013-05-05 04:32:00,
2013-05-05 00:42:00,54.0,44.4,30.10,WNW,292,3.0,5.0,70,0.00,,,0.00,meteohub,2013-05-05 04:42:00,
2013-05-05 00:47:00,54.0,44.4,30.10,WSW,248,3.0,5.0,70,0.00,,,0.00,meteohub,2013-05-05 04:47:00,
2013-05-05 00:52:00,54.0,44.4,30.10,ESE,112,4.0,5.0,70,0.00,,,0.00,meteohub,2013-05-05 04:52:00,
2013-05-05 00:57:00,53.8,44.2,30.13,North,0,0.0,5.0,70,0.00,,,0.00,meteohub,2013-05-05 04:57:00,
2013-05-05 01:02:00,53.8,44.2,30.13,WSW,248,4.0,7.0,70,0.00,,,0.00,meteohub,2013-05-05 05:02:00,
2013-05-05 01:07:00,53.6,44.4,30.13,WNW,292,0.0,7.0,71,0.00,,,0.00,meteohub,2013-05-05 05:07:00,
2013-05-05 01:12:00,53.4,44.2,30.10,SW,225,3.0,8.0,71,0.00,,,0.00,meteohub,2013-05-05 05:12:00,
2013-05-05 01:17:00,53.2,44.1,30.10,North,0,3.0,8.0,71,0.00,,,0.00,meteohub,2013-05-05 05:17:00,
2013-05-05 01:22:00,53.1,44.2,30.10,SSE,158,3.0,8.0,72,0.00,,,0.00,meteohub,2013-05-05 05:22:00,
2013-05-05 01:27:00,53.1,44.2,30.10,ESE,112,4.0,8.0,72,0.00,,,0.00,meteohub,2013-05-05 05:27:00,
2013-05-05 01:32:00,52.9,44.1,30.10,South,180,3.0,8.0,72,0.00,,,0.00,meteohub,2013-05-05 05:32:00,
2013-05-05 01:37:00,52.9,44.1,30.10,NNW,338,4.0,7.0,72,0.00,,,0.00,meteohub,2013-05-05 05:37:00,
2013-05-05 01:42:00,52.7,44.2,30.10,ENE,68,2.0,8.0,73,0.00,,,0.00,meteohub,2013-05-05 05:42:00,
2013-05-05 01:47:00,52.7,44.2,30.10,SE,135,2.0,8.0,73,0.00,,,0.00,meteohub,2013-05-05 05:47:00,
2013-05-05 01:52:00,52.7,44.2,30.10,SSE,158,2.0,8.0,73,0.00,,,0.00,meteohub,2013-05-05 05:52:00,
2013-05-05 01:57:00,52.5,44.4,30.10,WSW,248,3.0,5.0,74,0.00,,,0.00,meteohub,2013-05-05 05:57:00,
2013-05-05 02:02:00,52.5,44.4,30.10,SSE,158,3.0,5.0,74,0.00,,,0.00,meteohub,2013-05-05 06:02:00,
2013-05-05 02:07:00,52.3,44.2,30.10,NNW,338,0.0,5.0,74,0.00,,,0.00,meteohub,2013-05-05 06:07:00,
2013-05-05 02:12:00,52.3,44.6,30.10,ENE,68,0.0,5.0,75,0.00,,,0.00,meteohub,2013-05-05 06:12:00,
2013-05-05 02:17:00,52.2,44.4,30.10,West,270,2.0,5.0,75,0.00,,,0.00,meteohub,2013-05-05 06:17:00,
2013-05-05 02:22:00,52.2,44.4,30.10,ESE,112,5.0,5.0,75,0.00,,,0.00,meteohub,2013-05-05 06:22:00,
2013-05-05 02:27:00,52.0,44.2,30.10,ENE,68,3.0,6.0,75,0.00,,,0.00,meteohub,2013-05-05 06:27:00,
2013-05-05 02:32:00,52.0,44.6,30.10,NW,315,3.0,8.0,76,0.00,,,0.00,meteohub,2013-05-05 06:32:00,
2013-05-05 02:37:00,51.8,44.4,30.10,SSE,158,8.0,8.0,76,0.00,,,0.00,meteohub,2013-05-05 06:37:00,
2013-05-05 02:42:00,51.8,44.4,30.10,South,180,2.0,8.0,76,0.00,,,0.00,meteohub,2013-05-05 06:42:00,
2013-05-05 02:47:00,51.8,44.4,30.10,WSW,248,3.0,8.0,76,0.00,,,0.00,meteohub,2013-05-05 06:47:00,
2013-05-05 02:52:00,51.6,44.6,30.10,WNW,292,2.0,8.0,77,0.00,,,0.00,meteohub,2013-05-05 06:52:00,
2013-05-05 02:57:00,51.6,44.6,30.07,SSW,202,3.0,6.0,77,0.00,,,0.00,meteohub,2013-05-05 06:57:00,
2013-05-05 03:02:00,51.6,45.0,30.07,SW,225,2.0,7.0,78,0.00,,,0.00,meteohub,2013-05-05 07:02:00,
2013-05-05 03:07:00,51.6,45.0,30.07,SSE,158,5.0,7.0,78,0.00,,,0.00,meteohub,2013-05-05 07:07:00,
2013-05-05 03:12:00,51.4,44.8,30.07,SSE,158,4.0,7.0,78,0.00,,,0.00,meteohub,2013-05-05 07:12:00,
2013-05-05 03:17:00,51.3,44.6,30.07,SSE,158,3.0,7.0,78,0.00,,,0.00,meteohub,2013-05-05 07:17:00,
2013-05-05 03:22:00,51.3,45.0,30.07,WSW,248,3.0,8.0,79,0.00,,,0.00,meteohub,2013-05-05 07:22:00,
2013-05-05 03:32:00,51.1,44.8,30.07,West,270,3.0,8.0,79,0.00,,,0.00,meteohub,2013-05-05 07:32:00,
2013-05-05 03:42:00,51.1,45.1,30.07,West,270,2.0,6.0,80,0.00,,,0.00,meteohub,2013-05-05 07:42:00,
2013-05-05 03:47:00,50.9,45.0,30.07,SW,225,3.0,6.0,80,0.00,,,0.00,meteohub,2013-05-05 07:47:00,
2013-05-05 03:52:00,50.9,44.6,30.07,WNW,292,3.0,6.0,79,0.00,,,0.00,meteohub,2013-05-05 07:52:00,
2013-05-05 03:57:00,50.9,44.6,30.07,ENE,68,3.0,7.0,79,0.00,,,0.00,meteohub,2013-05-05 07:57:00,
2013-05-05 04:02:00,50.9,44.6,30.07,SSW,202,4.0,7.0,79,0.00,,,0.00,meteohub,2013-05-05 08:02:00,
2013-05-05 04:07:00,50.9,44.6,30.07,SSE,158,6.0,7.0,79,0.00,,,0.00,meteohub,2013-05-05 08:07:00,
2013-05-05 04:12:00,50.7,44.4,30.07,SW,225,4.0,7.0,79,0.00,,,0.00,meteohub,2013-05-05 08:12:00,
2013-05-05 04:17:00,50.7,44.4,30.07,WNW,292,3.0,7.0,79,0.00,,,0.00,meteohub,2013-05-05 08:17:00,
2013-05-05 04:22:00,50.5,44.2,30.07,WSW,248,3.0,8.0,79,0.00,,,0.00,meteohub,2013-05-05 08:22:00,
2013-05-05 04:27:00,50.4,44.4,30.07,SE,135,2.0,8.0,80,0.00,,,0.00,meteohub,2013-05-05 08:27:00,
2013-05-05 04:32:00,50.2,44.2,30.07,SSE,158,6.0,8.0,80,0.00,,,0.00,meteohub,2013-05-05 08:32:00,
2013-05-05 04:37:00,50.0,44.4,30.07,NE,45,3.0,8.0,81,0.00,,,0.00,meteohub,2013-05-05 08:37:00,
2013-05-05 04:42:00,49.8,44.2,30.07,WNW,292,3.0,8.0,81,0.00,,,0.00,meteohub,2013-05-05 08:42:00,
2013-05-05 04:47:00,49.6,44.4,30.07,WNW,292,3.0,8.0,82,0.00,,,0.00,meteohub,2013-05-05 08:47:00,
2013-05-05 04:52:00,49.5,44.6,30.07,WNW,292,3.0,6.0,83,0.00,,,0.00,meteohub,2013-05-05 08:52:00,
2013-05-05 04:57:00,49.5,44.6,30.07,SSW,202,4.0,6.0,83,0.00,,,0.00,meteohub,2013-05-05 08:57:00,
2013-05-05 05:02:00,49.5,44.6,30.07,WNW,292,3.0,5.0,83,0.00,,,0.00,meteohub,2013-05-05 09:02:00,
2013-05-05 05:07:00,49.5,44.8,30.07,WSW,248,3.0,5.0,84,0.00,,,0.00,meteohub,2013-05-05 09:07:00,
2013-05-05 05:12:00,49.5,44.8,30.07,SSW,202,3.0,6.0,84,0.00,,,0.00,meteohub,2013-05-05 09:12:00,
2013-05-05 05:17:00,49.5,44.8,30.07,SW,225,0.0,8.0,84,0.00,,,0.00,meteohub,2013-05-05 09:17:00,
2013-05-05 05:22:00,49.5,44.8,30.07,South,180,4.0,8.0,84,0.00,,,0.00,meteohub,2013-05-05 09:22:00,
2013-05-05 05:27:00,49.5,44.6,30.07,ENE,68,4.0,8.0,83,0.00,,,0.00,meteohub,2013-05-05 09:27:00,
2013-05-05 05:32:00,49.5,44.6,30.07,SW,225,3.0,8.0,83,0.00,,,0.00,meteohub,2013-05-05 09:32:00,
2013-05-05 05:37:00,49.5,44.6,30.07,ESE,112,4.0,8.0,83,0.00,,,0.00,meteohub,2013-05-05 09:37:00,
2013-05-05 05:42:00,49.5,44.6,30.07,WSW,248,3.0,6.0,83,0.00,,,0.00,meteohub,2013-05-05 09:42:00,
2013-05-05 05:47:00,49.5,44.6,30.07,South,180,3.0,6.0,83,0.00,,,0.00,meteohub,2013-05-05 09:47:00,
2013-05-05 05:52:00,49.3,44.6,30.07,West,270,3.0,6.0,84,0.00,,,0.00,meteohub,2013-05-05 09:52:00,
2013-05-05 06:02:00,49.3,44.6,30.07,SSW,202,3.0,6.0,84,0.00,,,0.00,meteohub,2013-05-05 10:02:00,
2013-05-05 06:07:00,49.3,44.6,30.07,SSW,202,2.0,6.0,84,0.00,,,0.00,meteohub,2013-05-05 10:07:00,
2013-05-05 06:12:00,49.5,44.8,30.07,WNW,292,0.0,6.0,84,0.00,,,0.00,meteohub,2013-05-05 10:12:00,
2013-05-05 06:17:00,49.5,44.8,30.07,South,180,3.0,6.0,84,0.00,,,0.00,meteohub,2013-05-05 10:17:00,
2013-05-05 06:22:00,49.5,44.8,30.07,East,90,7.0,7.0,84,0.00,,,0.00,meteohub,2013-05-05 10:22:00,
2013-05-05 06:27:00,49.5,44.8,30.07,ESE,112,2.0,8.0,84,0.00,,,0.00,meteohub,2013-05-05 10:27:00,
2013-05-05 06:32:00,49.6,45.0,30.07,South,180,3.0,8.0,84,0.00,,,0.00,meteohub,2013-05-05 10:32:00,
2013-05-05 06:37:00,49.5,44.8,30.07,SSE,158,0.0,8.0,84,0.00,,,0.00,meteohub,2013-05-05 10:37:00,
2013-05-05 06:42:00,49.6,44.8,30.07,West,270,4.0,7.0,83,0.00,,,0.00,meteohub,2013-05-05 10:42:00,
2013-05-05 06:47:00,49.6,45.0,30.07,ENE,68,3.0,7.0,84,0.00,,,0.00,meteohub,2013-05-05 10:47:00,
2013-05-05 06:52:00,49.6,45.0,30.07,WSW,248,3.0,10.0,84,0.00,,,0.00,meteohub,2013-05-05 10:52:00,
2013-05-05 06:57:00,49.6,45.0,30.07,West,270,5.0,10.0,84,0.00,,,0.00,meteohub,2013-05-05 10:57:00,
2013-05-05 07:02:00,49.6,45.0,30.07,WSW,248,3.0,10.0,84,0.00,,,0.00,meteohub,2013-05-05 11:02:00,
2013-05-05 07:07:00,49.6,45.0,30.07,WNW,292,5.0,5.0,84,0.00,,,0.00,meteohub,2013-05-05 11:07:00,
2013-05-05 07:12:00,49.6,45.0,30.10,SSE,158,3.0,6.0,84,0.00,,,0.00,meteohub,2013-05-05 11:12:00,
2013-05-05 07:17:00,49.6,44.8,30.10,WNW,292,3.0,7.0,83,0.00,,,0.00,meteohub,2013-05-05 11:17:00,
2013-05-05 07:22:00,49.8,44.8,30.10,WSW,248,5.0,8.0,83,0.00,,,0.00,meteohub,2013-05-05 11:22:00,
2013-05-05 07:27:00,49.6,44.8,30.10,SSE,158,6.0,8.0,83,0.00,,,0.00,meteohub,2013-05-05 11:27:00,
2013-05-05 07:32:00,49.8,44.8,30.10,SW,225,2.0,9.0,83,0.00,,,0.00,meteohub,2013-05-05 11:32:00,
2013-05-05 07:37:00,49.8,44.8,30.10,WSW,248,0.0,9.0,83,0.00,,,0.00,meteohub,2013-05-05 11:37:00,
2013-05-05 07:42:00,50.0,45.0,30.10,NW,315,3.0,9.0,83,0.00,,,0.00,meteohub,2013-05-05 11:42:00,
2013-05-05 07:47:00,50.2,45.1,30.10,WSW,248,3.0,9.0,83,0.00,,,0.00,meteohub,2013-05-05 11:47:00,
2013-05-05 07:52:00,50.2,45.1,30.10,SSE,158,5.0,9.0,83,0.00,,,0.00,meteohub,2013-05-05 11:52:00,
2013-05-05 07:57:00,50.2,45.0,30.07,SW,225,3.0,9.0,82,0.00,,,0.00,meteohub,2013-05-05 11:57:00,
2013-05-05 08:02:00,50.4,45.1,30.07,NNW,338,3.0,8.0,82,0.00,,,0.00,meteohub,2013-05-05 12:02:00,
2013-05-05 08:07:00,50.5,45.3,30.07,WNW,292,0.0,6.0,82,0.00,,,0.00,meteohub,2013-05-05 12:07:00,
2013-05-05 08:12:00,50.9,45.7,30.10,NE,45,0.0,4.0,82,0.00,,,0.00,meteohub,2013-05-05 12:12:00,
2013-05-05 08:17:00,51.1,45.5,30.10,NNW,338,0.0,5.0,81,0.00,,,0.00,meteohub,2013-05-05 12:17:00,
2013-05-05 08:22:00,51.3,45.3,30.10,SSW,202,5.0,6.0,80,0.00,,,0.00,meteohub,2013-05-05 12:22:00,
2013-05-05 08:27:00,51.1,44.8,30.10,SSW,202,3.0,6.0,79,0.00,,,0.00,meteohub,2013-05-05 12:27:00,
2013-05-05 08:32:00,51.1,44.8,30.10,NW,315,3.0,10.0,79,0.00,,,0.00,meteohub,2013-05-05 12:32:00,
2013-05-05 08:37:00,51.1,44.8,30.10,West,270,4.0,10.0,79,0.00,,,0.00,meteohub,2013-05-05 12:37:00,
2013-05-05 08:42:00,51.1,44.8,30.10,SSE,158,5.0,10.0,79,0.00,,,0.00,meteohub,2013-05-05 12:42:00,
2013-05-05 08:47:00,51.1,44.8,30.10,SSE,158,4.0,8.0,79,0.00,,,0.00,meteohub,2013-05-05 12:47:00,
2013-05-05 08:52:00,51.1,44.8,30.10,South,180,0.0,10.0,79,0.00,,,0.00,meteohub,2013-05-05 12:52:00,
2013-05-05 08:57:00,51.1,45.1,30.10,SE,135,6.0,10.0,80,0.00,,,0.00,meteohub,2013-05-05 12:57:00,
2013-05-05 09:02:00,51.3,45.3,30.10,SSW,202,4.0,10.0,80,0.00,,,0.00,meteohub,2013-05-05 13:02:00,
2013-05-05 09:07:00,51.3,45.0,30.10,West,270,0.0,6.0,79,0.00,,,0.00,meteohub,2013-05-05 13:07:00,
2013-05-05 09:12:00,51.4,45.1,30.10,West,270,3.0,8.0,79,0.00,,,0.00,meteohub,2013-05-05 13:12:00,
2013-05-05 09:17:00,51.8,45.5,30.10,SSE,158,3.0,8.0,79,0.00,,,0.00,meteohub,2013-05-05 13:17:00,
2013-05-05 09:22:00,51.8,45.1,30.10,SSW,202,3.0,8.0,78,0.00,,,0.00,meteohub,2013-05-05 13:22:00,
2013-05-05 09:27:00,52.0,45.0,30.10,SW,225,5.0,7.0,77,0.00,,,0.00,meteohub,2013-05-05 13:27:00,
2013-05-05 09:32:00,52.0,44.6,30.10,WSW,248,3.0,7.0,76,0.00,,,0.00,meteohub,2013-05-05 13:32:00,
2013-05-05 09:37:00,52.3,45.0,30.10,SW,225,3.0,7.0,76,0.00,,,0.00,meteohub,2013-05-05 13:37:00,
2013-05-05 09:42:00,52.9,45.1,30.10,WNW,292,4.0,7.0,75,0.00,,,0.00,meteohub,2013-05-05 13:42:00,
2013-05-05 09:47:00,53.4,45.3,30.10,WSW,248,3.0,7.0,74,0.00,,,0.00,meteohub,2013-05-05 13:47:00,
2013-05-05 09:52:00,53.8,45.3,30.10,SW,225,8.0,8.0,73,0.00,,,0.00,meteohub,2013-05-05 13:52:00,
2013-05-05 09:57:00,53.8,45.0,30.10,SE,135,2.0,8.0,72,0.00,,,0.00,meteohub,2013-05-05 13:57:00,
2013-05-05 10:02:00,53.6,44.8,30.10,South,180,10.0,10.0,72,0.00,,,0.00,meteohub,2013-05-05 14:02:00,
2013-05-05 10:07:00,53.8,45.0,30.10,North,0,3.0,10.0,72,0.00,,,0.00,meteohub,2013-05-05 14:07:00,
2013-05-05 10:12:00,53.8,45.0,30.10,NNE,22,4.0,10.0,72,0.00,,,0.00,meteohub,2013-05-05 14:12:00,
2013-05-05 10:17:00,54.1,45.3,30.10,SSE,158,3.0,10.0,72,0.00,,,0.00,meteohub,2013-05-05 14:17:00,
2013-05-05 10:22:00,54.0,45.1,30.10,NNW,338,3.0,6.0,72,0.00,,,0.00,meteohub,2013-05-05 14:22:00,
2013-05-05 10:27:00,54.0,45.1,30.10,ESE,112,4.0,6.0,72,0.00,,,0.00,meteohub,2013-05-05 14:27:00,
2013-05-05 10:32:00,54.0,45.1,30.10,WSW,248,4.0,6.0,72,0.00,,,0.00,meteohub,2013-05-05 14:32:00,
2013-05-05 10:37:00,54.1,45.7,30.10,NW,315,2.0,10.0,73,0.00,,,0.00,meteohub,2013-05-05 14:37:00,
2013-05-05 10:42:00,54.5,46.0,30.07,WNW,292,4.0,10.0,73,0.00,,,0.00,meteohub,2013-05-05 14:42:00,
2013-05-05 10:47:00,55.0,46.2,30.07,NNW,338,5.0,10.0,72,0.00,,,0.00,meteohub,2013-05-05 14:47:00,
2013-05-05 10:52:00,55.2,46.4,30.07,West,270,3.0,9.0,72,0.00,,,0.00,meteohub,2013-05-05 14:52:00,
2013-05-05 10:57:00,55.2,46.4,30.07,SW,225,0.0,6.0,72,0.00,,,0.00,meteohub,2013-05-05 14:57:00,
2013-05-05 11:02:00,55.8,46.6,30.07,WNW,292,3.0,6.0,71,0.00,,,0.00,meteohub,2013-05-05 15:02:00,
2013-05-05 11:07:00,56.1,46.4,30.07,NNW,338,4.0,8.0,70,0.00,,,0.00,meteohub,2013-05-05 15:07:00,
2013-05-05 11:12:00,56.1,46.0,30.07,North,0,4.0,8.0,69,0.00,,,0.00,meteohub,2013-05-05 15:12:00,
2013-05-05 11:17:00,56.3,46.2,30.07,South,180,0.0,8.0,69,0.00,,,0.00,meteohub,2013-05-05 15:17:00,
2013-05-05 11:22:00,56.7,46.9,30.07,WSW,248,3.0,7.0,70,0.00,,,0.00,meteohub,2013-05-05 15:22:00,
2013-05-05 11:27:00,56.8,46.8,30.07,West,270,3.0,7.0,69,0.00,,,0.00,meteohub,2013-05-05 15:27:00,
2013-05-05 11:32:00,56.7,46.2,30.07,SSW,202,3.0,6.0,68,0.00,,,0.00,meteohub,2013-05-05 15:32:00,
2013-05-05 11:37:00,56.8,46.8,30.07,SSE,158,3.0,9.0,69,0.00,,,0.00,meteohub,2013-05-05 15:37:00,
2013-05-05 11:42:00,57.0,46.9,30.07,SSW,202,0.0,9.0,69,0.00,,,0.00,meteohub,2013-05-05 15:42:00,
2013-05-05 11:47:00,56.8,46.8,30.07,WNW,292,5.0,9.0,69,0.00,,,0.00,meteohub,2013-05-05 15:47:00,
2013-05-05 11:52:00,56.7,46.6,30.07,WSW,248,4.0,6.0,69,0.00,,,0.00,meteohub,2013-05-05 15:52:00,
2013-05-05 11:57:00,57.0,47.3,30.07,West,270,4.0,6.0,70,0.00,,,0.00,meteohub,2013-05-05 15:57:00,
2013-05-05 12:02:00,57.2,47.1,30.07,NW,315,5.0,6.0,69,0.00,,,0.00,meteohub,2013-05-05 16:02:00,
2013-05-05 12:07:00,57.4,46.9,30.07,WNW,292,5.0,6.0,68,0.00,,,0.00,meteohub,2013-05-05 16:07:00,
2013-05-05 12:12:00,57.7,47.3,30.07,SSW,202,4.0,6.0,68,0.00,,,0.00,meteohub,2013-05-05 16:12:00,
2013-05-05 12:17:00,57.6,47.1,30.07,SSW,202,4.0,10.0,68,0.00,,,0.00,meteohub,2013-05-05 16:17:00,
2013-05-05 12:22:00,57.9,47.5,30.07,SSW,202,4.0,10.0,68,0.00,,,0.00,meteohub,2013-05-05 16:22:00,
2013-05-05 12:27:00,58.6,48.2,30.07,WNW,292,0.0,6.0,68,0.00,,,0.00,meteohub,2013-05-05 16:27:00,
2013-05-05 12:32:00,58.8,47.8,30.07,NNE,22,3.0,6.0,67,0.00,,,0.00,meteohub,2013-05-05 16:32:00,
2013-05-05 12:37:00,58.6,47.3,30.07,West,270,2.0,8.0,66,0.00,,,0.00,meteohub,2013-05-05 16:37:00,
2013-05-05 12:42:00,58.6,47.3,30.07,NW,315,4.0,8.0,66,0.00,,,0.00,meteohub,2013-05-05 16:42:00,
2013-05-05 12:47:00,58.5,47.1,30.07,West,270,4.0,8.0,66,0.00,,,0.00,meteohub,2013-05-05 16:47:00,
2013-05-05 12:52:00,58.5,47.5,30.07,NNW,338,0.0,6.0,67,0.00,,,0.00,meteohub,2013-05-05 16:52:00,
2013-05-05 12:57:00,58.3,47.3,30.07,NNW,338,0.0,5.0,67,0.00,,,0.00,meteohub,2013-05-05 16:57:00,
2013-05-05 13:02:00,58.6,48.2,30.07,NNW,338,0.0,6.0,68,0.00,,,0.00,meteohub,2013-05-05 17:02:00,
2013-05-05 13:07:00,58.5,48.0,30.07,WNW,292,4.0,6.0,68,0.00,,,0.00,meteohub,2013-05-05 17:07:00,
2013-05-05 13:12:00,58.5,48.0,30.07,WSW,248,3.0,9.0,68,0.00,,,0.00,meteohub,2013-05-05 17:12:00,
2013-05-05 13:17:00,58.5,48.4,30.07,SSW,202,3.0,9.0,69,0.00,,,0.00,meteohub,2013-05-05 17:17:00,
2013-05-05 13:22:00,58.5,48.7,30.07,WSW,248,3.0,5.0,70,0.00,,,0.00,meteohub,2013-05-05 17:22:00,
2013-05-05 13:27:00,58.5,49.1,30.07,NNW,338,0.0,5.0,71,0.00,,,0.00,meteohub,2013-05-05 17:27:00,
2013-05-05 13:32:00,58.1,48.7,30.07,SSW,202,3.0,5.0,71,0.00,,,0.00,meteohub,2013-05-05 17:32:00,
2013-05-05 13:37:00,58.1,49.1,30.07,NNW,338,3.0,5.0,72,0.00,,,0.00,meteohub,2013-05-05 17:37:00,
2013-05-05 13:42:00,58.3,49.3,30.07,WNW,292,4.0,8.0,72,0.00,,,0.00,meteohub,2013-05-05 17:42:00,
2013-05-05 13:47:00,58.1,49.1,30.07,SE,135,0.0,8.0,72,0.00,,,0.00,meteohub,2013-05-05 17:47:00,
2013-05-05 13:52:00,58.3,50.0,30.07,NNW,338,3.0,8.0,74,0.00,,,0.00,meteohub,2013-05-05 17:52:00,
2013-05-05 13:57:00,58.1,50.2,30.07,SSE,158,4.0,5.0,75,0.00,,,0.00,meteohub,2013-05-05 17:57:00,
2013-05-05 14:02:00,58.1,50.5,30.07,WSW,248,3.0,4.0,76,0.00,,,0.00,meteohub,2013-05-05 18:02:00,
2013-05-05 14:07:00,58.5,51.6,30.07,NE,45,5.0,5.0,78,0.00,,,0.00,meteohub,2013-05-05 18:07:00,
2013-05-05 14:12:00,58.5,51.6,30.04,WSW,248,3.0,5.0,78,0.00,,,0.00,meteohub,2013-05-05 18:12:00,
2013-05-05 14:17:00,58.5,51.6,30.04,ESE,112,2.0,5.0,78,0.00,,,0.00,meteohub,2013-05-05 18:17:00,
2013-05-05 14:22:00,58.8,52.0,30.04,SE,135,0.0,5.0,78,0.00,,,0.00,meteohub,2013-05-05 18:22:00,
2013-05-05 14:27:00,59.0,51.4,30.07,SSE,158,5.0,5.0,76,0.00,,,0.00,meteohub,2013-05-05 18:27:00,
2013-05-05 14:32:00,59.4,51.8,30.07,SW,225,4.0,6.0,76,0.00,,,0.00,meteohub,2013-05-05 18:32:00,
2013-05-05 14:37:00,59.7,51.4,30.07,SSW,202,0.0,6.0,74,0.00,,,0.00,meteohub,2013-05-05 18:37:00,
2013-05-05 14:42:00,59.9,51.3,30.07,West,270,3.0,6.0,73,0.00,,,0.00,meteohub,2013-05-05 18:42:00,
2013-05-05 14:47:00,59.9,50.9,30.07,WNW,292,0.0,6.0,72,0.00,,,0.00,meteohub,2013-05-05 18:47:00,
2013-05-05 14:52:00,60.3,51.3,30.07,West,270,0.0,8.0,72,0.00,,,0.00,meteohub,2013-05-05 18:52:00,
2013-05-05 14:57:00,60.1,50.7,30.04,WNW,292,3.0,8.0,71,0.00,,,0.00,meteohub,2013-05-05 18:57:00,
2013-05-05 15:02:00,59.9,50.5,30.04,West,270,4.0,5.0,71,0.00,,,0.00,meteohub,2013-05-05 19:02:00,
2013-05-05 15:07:00,59.9,50.9,30.04,WSW,248,4.0,6.0,72,0.00,,,0.00,meteohub,2013-05-05 19:07:00,
2013-05-05 15:12:00,60.1,51.1,30.04,WNW,292,0.0,6.0,72,0.00,,,0.00,meteohub,2013-05-05 19:12:00,
2013-05-05 15:17:00,59.9,50.9,30.04,NW,315,0.0,6.0,72,0.00,,,0.00,meteohub,2013-05-05 19:17:00,
2013-05-05 15:22:00,59.9,51.3,30.04,SSW,202,0.0,5.0,73,0.00,,,0.00,meteohub,2013-05-05 19:22:00,
2013-05-05 15:27:00,59.9,51.3,30.04,WSW,248,3.0,5.0,73,0.00,,,0.00,meteohub,2013-05-05 19:27:00,
2013-05-05 15:32:00,59.9,51.3,30.04,West,270,2.0,5.0,73,0.00,,,0.00,meteohub,2013-05-05 19:32:00,
2013-05-05 15:37:00,59.9,51.6,30.04,SSW,202,0.0,4.0,74,0.00,,,0.00,meteohub,2013-05-05 19:37:00,
2013-05-05 15:42:00,59.7,51.1,30.04,WSW,248,3.0,4.0,73,0.00,,,0.00,meteohub,2013-05-05 19:42:00,
2013-05-05 15:52:00,59.9,51.3,30.04,WSW,248,3.0,4.0,73,0.00,,,0.00,meteohub,2013-05-05 19:52:00,
2013-05-05 15:57:00,60.1,51.4,30.04,WNW,292,0.0,5.0,73,0.00,,,0.00,meteohub,2013-05-05 19:57:00,
2013-05-05 16:02:00,59.9,51.3,30.04,WSW,248,3.0,6.0,73,0.00,,,0.00,meteohub,2013-05-05 20:02:00,
2013-05-05 16:07:00,60.1,51.4,30.04,NW,315,3.0,6.0,73,0.00,,,0.00,meteohub,2013-05-05 20:07:00,
2013-05-05 16:12:00,60.1,51.4,30.04,SSW,202,3.0,8.0,73,0.00,,,0.00,meteohub,2013-05-05 20:12:00,
2013-05-05 16:17:00,60.1,51.4,30.04,WSW,248,3.0,8.0,73,0.00,,,0.00,meteohub,2013-05-05 20:17:00,
2013-05-05 16:22:00,59.9,51.6,30.04,West,270,3.0,8.0,74,0.00,,,0.00,meteohub,2013-05-05 20:22:00,
2013-05-05 16:27:00,59.7,52.2,30.04,WSW,248,3.0,8.0,76,0.00,,,0.00,meteohub,2013-05-05 20:27:00,
2013-05-05 16:32:00,59.5,53.1,30.04,NNW,338,3.0,8.0,79,0.00,,,0.00,meteohub,2013-05-05 20:32:00,
2013-05-05 16:37:00,59.4,53.6,30.04,WSW,248,5.0,8.0,81,0.00,,,0.00,meteohub,2013-05-05 20:37:00,
2013-05-05 16:42:00,59.4,53.8,30.04,South,180,0.0,6.0,82,0.00,,,0.00,meteohub,2013-05-05 20:42:00,
2013-05-05 16:47:00,59.4,54.1,30.04,WNW,292,3.0,8.0,83,0.00,,,0.00,meteohub,2013-05-05 20:47:00,
2013-05-05 16:52:00,59.0,54.5,30.04,NW,315,4.0,8.0,85,0.00,,,0.00,meteohub,2013-05-05 20:52:00,
2013-05-05 16:57:00,59.0,55.2,30.04,West,270,3.0,8.0,87,0.00,,,0.00,meteohub,2013-05-05 20:57:00,
2013-05-05 17:02:00,58.8,55.6,30.04,WSW,248,0.0,6.0,89,0.00,,,0.00,meteohub,2013-05-05 21:02:00,
2013-05-05 17:07:00,58.6,55.8,30.04,West,270,3.0,6.0,90,0.00,,,0.00,meteohub,2013-05-05 21:07:00,
2013-05-05 17:12:00,58.6,55.8,30.01,SW,225,3.0,6.0,90,0.00,,,0.00,meteohub,2013-05-05 21:12:00,
2013-05-05 17:17:00,58.5,55.8,30.01,West,270,4.0,6.0,91,0.00,,,0.00,meteohub,2013-05-05 21:17:00,
2013-05-05 17:22:00,58.5,55.8,30.01,West,270,4.0,5.0,91,0.00,,,0.00,meteohub,2013-05-05 21:22:00,
2013-05-05 17:27:00,58.5,55.8,30.01,West,270,3.0,5.0,91,0.00,,,0.00,meteohub,2013-05-05 21:27:00,
2013-05-05 17:32:00,58.5,55.8,30.01,East,90,4.0,5.0,91,0.00,,,0.00,meteohub,2013-05-05 21:32:00,
2013-05-05 17:37:00,58.5,55.8,30.01,West,270,2.0,6.0,91,0.00,,,0.00,meteohub,2013-05-05 21:37:00,
2013-05-05 17:42:00,58.5,55.6,30.01,WNW,292,0.0,7.0,90,0.00,,,0.00,meteohub,2013-05-05 21:42:00,
2013-05-05 17:47:00,58.6,55.8,30.01,WSW,248,4.0,8.0,90,0.00,,,0.00,meteohub,2013-05-05 21:47:00,
2013-05-05 17:52:00,58.5,55.2,30.01,West,270,3.0,8.0,89,0.00,,,0.00,meteohub,2013-05-05 21:52:00,
2013-05-05 17:57:00,58.8,55.2,30.01,WSW,248,3.0,8.0,88,0.00,,,0.00,meteohub,2013-05-05 21:57:00,
2013-05-05 18:02:00,58.8,55.0,30.01,WSW,248,0.0,7.0,87,0.00,,,0.00,meteohub,2013-05-05 22:02:00,
2013-05-05 18:07:00,58.8,54.7,30.01,SE,135,3.0,6.0,86,0.00,,,0.00,meteohub,2013-05-05 22:07:00,
2013-05-05 18:12:00,58.8,54.3,30.01,WSW,248,3.0,5.0,85,0.00,,,0.00,meteohub,2013-05-05 22:12:00,
2013-05-05 18:17:00,58.8,54.3,30.01,WSW,248,3.0,6.0,85,0.00,,,0.00,meteohub,2013-05-05 22:17:00,
2013-05-05 18:22:00,58.5,54.0,30.01,SW,225,0.0,6.0,85,0.00,,,0.00,meteohub,2013-05-05 22:22:00,
2013-05-05 18:27:00,58.6,54.1,30.01,SSW,202,4.0,7.0,85,0.00,,,0.00,meteohub,2013-05-05 22:27:00,
2013-05-05 18:32:00,58.6,54.1,30.01,West,270,0.0,7.0,85,0.00,,,0.00,meteohub,2013-05-05 22:32:00,
2013-05-05 18:37:00,58.6,54.1,30.01,SSE,158,0.0,7.0,85,0.00,,,0.00,meteohub,2013-05-05 22:37:00,
2013-05-05 18:42:00,58.6,54.1,30.01,WSW,248,2.0,7.0,85,0.00,,,0.00,meteohub,2013-05-05 22:42:00,
2013-05-05 18:47:00,58.6,53.8,30.01,South,180,4.0,6.0,84,0.00,,,0.00,meteohub,2013-05-05 22:47:00,
2013-05-05 18:52:00,58.8,54.0,30.01,North,0,0.0,6.0,84,0.00,,,0.00,meteohub,2013-05-05 22:52:00,
2013-05-05 18:57:00,58.8,54.0,30.01,WSW,248,3.0,5.0,84,0.00,,,0.00,meteohub,2013-05-05 22:57:00,
2013-05-05 19:02:00,58.8,53.6,30.01,NNW,338,3.0,6.0,83,0.00,,,0.00,meteohub,2013-05-05 23:02:00,
2013-05-05 19:07:00,58.8,53.6,30.01,WNW,292,0.0,6.0,83,0.00,,,0.00,meteohub,2013-05-05 23:07:00,
2013-05-05 19:12:00,58.8,53.6,30.01,West,270,3.0,4.0,83,0.00,,,0.00,meteohub,2013-05-05 23:12:00,
2013-05-05 19:17:00,58.8,53.6,30.01,NW,315,0.0,5.0,83,0.00,,,0.00,meteohub,2013-05-05 23:17:00,
2013-05-05 19:22:00,58.6,53.2,30.01,NW,315,0.0,6.0,82,0.00,,,0.00,meteohub,2013-05-05 23:22:00,
2013-05-05 19:27:00,58.6,53.2,30.01,WSW,248,0.0,6.0,82,0.00,,,0.00,meteohub,2013-05-05 23:27:00,
2013-05-05 19:32:00,58.6,53.2,30.01,SSW,202,2.0,6.0,82,0.00,,,0.00,meteohub,2013-05-05 23:32:00,
2013-05-05 19:37:00,58.6,52.9,30.01,WSW,248,5.0,7.0,81,0.00,,,0.00,meteohub,2013-05-05 23:37:00,
2013-05-05 19:42:00,58.6,52.9,30.01,NNE,22,0.0,7.0,81,0.00,,,0.00,meteohub,2013-05-05 23:42:00,
2013-05-05 19:47:00,58.6,52.9,30.01,SSE,158,4.0,7.0,81,0.00,,,0.00,meteohub,2013-05-05 23:47:00,
2013-05-05 19:52:00,58.6,52.9,30.01,South,180,3.0,5.0,81,0.00,,,0.00,meteohub,2013-05-05 23:52:00,
2013-05-05 19:57:00,58.6,52.9,30.01,SSW,202,4.0,5.0,81,0.00,,,0.00,meteohub,2013-05-05 23:57:00,
2013-05-05 20:02:00,58.5,52.7,30.01,South,180,0.0,4.0,81,0.00,,,0.00,meteohub,2013-05-06 00:02:00,
2013-05-05 20:07:00,58.5,52.7,30.01,WNW,292,3.0,6.0,81,0.00,,,0.00,meteohub,2013-05-06 00:07:00,
2013-05-05 20:12:00,58.5,52.7,30.01,WSW,248,0.0,6.0,81,0.00,,,0.00,meteohub,2013-05-06 00:12:00,
2013-05-05 20:17:00,58.5,52.7,30.01,SSW,202,8.0,8.0,81,0.00,,,0.00,meteohub,2013-05-06 00:17:00,
2013-05-05 20:22:00,58.5,52.7,30.01,WSW,248,3.0,8.0,81,0.00,,,0.00,meteohub,2013-05-06 00:22:00,
2013-05-05 20:27:00,58.5,52.7,30.01,WSW,248,3.0,8.0,81,0.00,,,0.00,meteohub,2013-05-06 00:27:00,
2013-05-05 20:32:00,58.6,52.9,30.01,SSW,202,3.0,8.0,81,0.00,,,0.00,meteohub,2013-05-06 00:32:00,
2013-05-05 20:37:00,58.6,52.9,30.01,SW,225,3.0,7.0,81,0.00,,,0.00,meteohub,2013-05-06 00:37:00,
2013-05-05 20:42:00,58.6,52.5,30.01,SSE,158,3.0,7.0,80,0.00,,,0.00,meteohub,2013-05-06 00:42:00,
2013-05-05 20:47:00,58.8,52.7,30.01,SW,225,2.0,8.0,80,0.00,,,0.00,meteohub,2013-05-06 00:47:00,
2013-05-05 20:52:00,58.8,52.7,30.01,West,270,4.0,8.0,80,0.00,,,0.00,meteohub,2013-05-06 00:52:00,
2013-05-05 20:57:00,58.8,52.3,30.01,NW,315,3.0,8.0,79,0.00,,,0.00,meteohub,2013-05-06 00:57:00,
2013-05-05 21:02:00,58.8,52.3,30.01,SW,225,4.0,5.0,79,0.00,,,0.00,meteohub,2013-05-06 01:02:00,
2013-05-05 21:07:00,58.8,52.3,30.01,West,270,3.0,6.0,79,0.00,,,0.00,meteohub,2013-05-06 01:07:00,
2013-05-05 21:12:00,58.8,52.3,30.01,WSW,248,3.0,6.0,79,0.00,,,0.00,meteohub,2013-05-06 01:12:00,
2013-05-05 21:17:00,58.8,52.3,30.01,South,180,0.0,6.0,79,0.00,,,0.00,meteohub,2013-05-06 01:17:00,
2013-05-05 21:22:00,58.6,52.5,30.01,West,270,0.0,5.0,80,0.00,,,0.00,meteohub,2013-05-06 01:22:00,
2013-05-05 21:27:00,58.6,52.5,30.01,WNW,292,3.0,6.0,80,0.00,,,0.00,meteohub,2013-05-06 01:27:00,
2013-05-05 21:32:00,58.6,52.5,30.01,WSW,248,4.0,6.0,80,0.00,,,0.00,meteohub,2013-05-06 01:32:00,
2013-05-05 21:37:00,58.6,52.9,30.01,SSW,202,3.0,6.0,81,0.00,,,0.00,meteohub,2013-05-06 01:37:00,
2013-05-05 21:42:00,58.6,52.9,30.01,South,180,2.0,6.0,81,0.00,,,0.00,meteohub,2013-05-06 01:42:00,
2013-05-05 21:47:00,58.6,52.9,30.01,NNW,338,0.0,6.0,81,0.00,,,0.00,meteohub,2013-05-06 01:47:00,
2013-05-05 21:52:00,58.5,52.7,30.01,West,270,4.0,4.0,81,0.00,,,0.00,meteohub,2013-05-06 01:52:00,
2013-05-05 21:57:00,58.5,52.7,30.04,West,270,3.0,9.0,81,0.00,,,0.00,meteohub,2013-05-06 01:57:00,
2013-05-05 22:02:00,58.5,52.7,30.04,NNW,338,0.0,10.0,81,0.00,,,0.00,meteohub,2013-05-06 02:02:00,
2013-05-05 22:07:00,58.3,52.5,30.04,East,90,3.0,10.0,81,0.00,,,0.00,meteohub,2013-05-06 02:07:00,
2013-05-05 22:12:00,58.3,52.9,30.04,WSW,248,3.0,8.0,82,0.00,,,0.00,meteohub,2013-05-06 02:12:00,
2013-05-05 22:17:00,58.1,52.9,30.04,NNE,22,3.0,7.0,83,0.00,,,0.00,meteohub,2013-05-06 02:17:00,
2013-05-05 22:22:00,57.9,52.7,30.04,NNE,22,3.0,7.0,83,0.00,,,0.00,meteohub,2013-05-06 02:22:00,
2013-05-05 22:27:00,57.9,53.1,30.04,WNW,292,3.0,6.0,84,0.00,,,0.00,meteohub,2013-05-06 02:27:00,
2013-05-05 22:32:00,57.7,52.9,30.04,SE,135,0.0,5.0,84,0.00,,,0.00,meteohub,2013-05-06 02:32:00,
2013-05-05 22:37:00,57.7,53.2,30.04,WNW,292,3.0,5.0,85,0.00,,,0.00,meteohub,2013-05-06 02:37:00,
2013-05-05 22:42:00,57.6,53.1,30.04,WNW,292,3.0,5.0,85,0.00,,,0.00,meteohub,2013-05-06 02:42:00,
2013-05-05 22:47:00,57.6,53.4,30.04,West,270,3.0,5.0,86,0.00,,,0.00,meteohub,2013-05-06 02:47:00,
2013-05-05 22:52:00,57.6,53.4,30.04,ENE,68,3.0,5.0,86,0.00,,,0.00,meteohub,2013-05-06 02:52:00,
2013-05-05 22:57:00,57.6,53.4,30.01,WNW,292,4.0,9.0,86,0.00,,,0.00,meteohub,2013-05-06 02:57:00,
2013-05-05 23:02:00,57.6,53.4,30.01,NW,315,3.0,9.0,86,0.00,,,0.00,meteohub,2013-05-06 03:02:00,
2013-05-05 23:07:00,57.4,53.2,30.01,SSE,158,8.0,9.0,86,0.00,,,0.00,meteohub,2013-05-06 03:07:00,
2013-05-05 23:12:00,57.4,53.6,30.04,WNW,292,3.0,8.0,87,0.00,,,0.00,meteohub,2013-05-06 03:12:00,
2013-05-05 23:17:00,57.4,53.6,30.04,WSW,248,4.0,8.0,87,0.00,,,0.00,meteohub,2013-05-06 03:17:00,
2013-05-05 23:22:00,57.4,53.6,30.04,WNW,292,0.0,8.0,87,0.00,,,0.00,meteohub,2013-05-06 03:22:00,
2013-05-05 23:27:00,57.2,53.6,30.04,WNW,292,0.0,8.0,88,0.00,,,0.00,meteohub,2013-05-06 03:27:00,
2013-05-05 23:32:00,57.2,53.6,30.04,WNW,292,2.0,8.0,88,0.00,,,0.00,meteohub,2013-05-06 03:32:00,
2013-05-05 23:37:00,57.2,53.6,30.04,West,270,2.0,5.0,88,0.00,,,0.00,meteohub,2013-05-06 03:37:00,
2013-05-05 23:42:00,57.2,53.6,30.01,NE,45,3.0,6.0,88,0.00,,,0.00,meteohub,2013-05-06 03:42:00,
2013-05-05 23:47:00,57.0,53.8,30.01,WSW,248,3.0,6.0,89,0.00,,,0.00,meteohub,2013-05-06 03:47:00,
2013-05-05 23:52:00,57.0,53.8,30.01,NNW,338,4.0,6.0,89,0.00,,,0.00,meteohub,2013-05-06 03:52:00,
2013-05-05 23:57:00,57.0,53.8,30.01,WSW,248,3.0,6.0,89,0.00,,,0.00,meteohub,2013-05-06 03:57:00,